Content
SEND FEEDBACK

Daily
Averages
Monthly
Summary
United States of America

BUFFALO, OKLAHOMA


Home > North America > United States > Oklahoma
Elevation: 1810 feet     Latitude: 36 50N     Longitude: 099 37W

WEATHER
 
SELECT A DAY
Number of Records: 53,056;   Date Range: 9/1/12 - 11/25/14
 
SHARE

PRINT THIS DATA

[ ← Previous Day ]
WEATHER ALMANAC - JANUARY 23, 2013
[ Next Day → ]
[ °C ]   °F
Weather ElementAverageHighLow
Temperature43.4 °F68 °F (3:15 pm)26.6 °F (5:35 am)
Dewpoint29 °F33.8 °F (11:55 am)23 °F (1:15 am)
Humidity61 %86 % (5:35 am)26 % (3:15 pm)
Barometer30.18 in30.25 in (11:55 pm)30.10 in (2:55 pm)
Wind Speed6.4 mph13.8 mph (11:55 pm)
Weather ElementAverage
Visibility10 mi
Wind DirectionESE (129.2 °)

Weather ElementTotal
Precipitation---
Heating Degree Days17.7 (Base 65)
Averaged from 63 records on January 23, 2013
WEATHER CONDITIONS BREAKOUT
WIND DIRECTION BREAKOUT
WEATHER BY HOUR - JANUARY 23, 2013
[ °C ]   °F
Local TimeTemperatureDewpointHumidityBarometerVisibilityWind DirectionWind SpeedGust SpeedPrecipitationEventsConditions
12:35 AM33.8 °F24.8 °F70 %30.23 in10.0 miEast (80°)6.9 mphClear
12:55 AM33.8 °F24.8 °F70 %30.22 in10.0 miEast (90°)4.6 mphClear
1:15 AM33.8 °F23.0 °F65 %30.21 in10.0 miEast (100°)4.6 mphClear
1:35 AM32.0 °F24.8 °F75 %30.20 in10.0 miCalmClear
1:55 AM32.0 °F24.8 °F75 %30.20 in10.0 miCalmClear
2:15 AM32.0 °F24.8 °F75 %30.20 in10.0 miCalmClear
2:55 AM30.2 °F24.8 °F80 %30.20 in10.0 miNNW (340°)4.6 mphClear
3:15 AM28.4 °F23.0 °F80 %30.20 in10.0 miCalmClear
3:55 AM30.2 °F23.0 °F75 %30.19 in10.0 miCalmClear
4:15 AM30.2 °F24.8 °F80 %30.18 in10.0 miCalmClear
4:35 AM28.4 °F23.0 °F80 %30.19 in10.0 miCalmClear
4:55 AM28.4 °F23.0 °F80 %30.19 in10.0 miCalmClear
5:15 AM28.4 °F23.0 °F80 %30.19 in10.0 miCalmClear
5:35 AM26.6 °F23.0 °F86 %30.19 in10.0 miSW (230°)4.6 mphClear
5:55 AM28.4 °F23.0 °F80 %30.19 in10.0 miSSW (210°)6.9 mphClear
6:15 AM26.6 °F23.0 °F86 %30.19 in10.0 miSW (230°)8.1 mphClear
6:35 AM26.6 °F23.0 °F86 %30.20 in10.0 miWSW (240°)8.1 mphClear
6:55 AM26.6 °F23.0 °F86 %30.20 in10.0 miSW (230°)8.1 mphClear
7:15 AM26.6 °F23.0 °F86 %30.20 in10.0 miSW (230°)9.2 mphClear
7:55 AM26.6 °F23.0 °F86 %30.19 in10.0 miSW (220°)9.2 mphClear
8:15 AM28.4 °F23.0 °F80 %30.20 in10.0 miWSW (240°)4.6 mphClear
8:35 AM30.2 °F24.8 °F80 %30.21 in10.0 miSW (220°)5.8 mphClear
8:55 AM32.0 °F26.6 °F80 %30.21 in10.0 miSW (230°)5.8 mphClear
9:35 AM35.6 °F28.4 °F75 %30.21 in10.0 miSW (220°)4.6 mphClear
9:55 AM37.4 °F28.4 °F70 %30.21 in10.0 miSW (220°)5.8 mphClear
10:15 AM41.0 °F30.2 °F65 %30.22 in10.0 miSW (220°)5.8 mphClear
10:35 AM44.6 °F30.2 °F57 %30.23 in10.0 miWSW (250°)8.1 mphClear
10:55 AM44.6 °F32.0 °F61 %30.22 in10.0 miWSW (240°)6.9 mphClear
11:15 AM48.2 °F32.0 °F54 %30.21 in10.0 miWSW (240°)5.8 mphClear
11:55 AM53.6 °F33.8 °F47 %30.20 in10.0 miSW (230°)6.9 mphClear
12:15 PM55.4 °F33.8 °F44 %30.18 in10.0 miSW (230°)6.9 mphClear
12:35 PM55.4 °F33.8 °F44 %30.17 in10.0 miSW (230°)6.9 mphClear
12:55 PM59.0 °F32.0 °F36 %30.16 in10.0 miSW (230°)10.4 mphClear
1:15 PM62.6 °F32.0 °F32 %30.15 in10.0 miWSW (240°)9.2 mphClear
1:55 PM64.4 °F32.0 °F30 %30.13 in10.0 miSW (220°)5.8 mphClear
2:15 PM64.4 °F32.0 °F30 %30.12 in10.0 miSW (230°)5.8 mphClear
2:35 PM66.2 °F32.0 °F28 %30.11 in10.0 miSW (230°)8.1 mphClear
2:55 PM66.2 °F32.0 °F28 %30.10 in10.0 miWSW (250°)5.8 mphClear
3:15 PM68.0 °F32.0 °F26 %30.10 in10.0 miWSW (250°)3.5 mphClear
3:55 PM68.0 °F32.0 °F26 %30.11 in10.0 miNorth (10°)4.6 mphClear
4:15 PM64.4 °F32.0 °F30 %30.11 in10.0 miNE (40°)3.5 mphClear
4:35 PM64.4 °F32.0 °F30 %30.11 in10.0 miENE (60°)3.5 mphClear
4:55 PM62.6 °F32.0 °F32 %30.12 in10.0 miNE (50°)5.8 mphClear
5:15 PM60.8 °F32.0 °F34 %30.12 in10.0 miENE (60°)6.9 mphClear
5:55 PM55.4 °F33.8 °F44 %30.12 in10.0 miEast (80°)8.1 mphClear
6:15 PM53.6 °F33.8 °F47 %30.13 in10.0 miEast (80°)9.2 mphClear
6:35 PM51.8 °F33.8 °F50 %30.15 in10.0 miENE (70°)6.9 mphClear
6:55 PM50.0 °F33.8 °F54 %30.16 in10.0 miENE (70°)8.1 mphClear
7:15 PM48.2 °F32.0 °F54 %30.15 in10.0 miEast (80°)9.2 mphClear
7:35 PM48.2 °F32.0 °F54 %30.15 in10.0 miENE (70°)9.2 mphClear
7:55 PM46.4 °F32.0 °F57 %30.16 in10.0 miNE (50°)9.2 mphClear
8:15 PM44.6 °F32.0 °F61 %30.17 in10.0 miNE (50°)10.4 mphClear
8:35 PM44.6 °F32.0 °F61 %30.17 in10.0 miENE (60°)9.2 mphClear
8:55 PM44.6 °F32.0 °F61 %30.18 in10.0 miENE (70°)8.1 mphClear
9:15 PM44.6 °F32.0 °F61 %30.18 in10.0 miEast (80°)9.2 mphClear
9:35 PM42.8 °F32.0 °F66 %30.19 in10.0 miEast (80°)10.4 mphClear
9:55 PM42.8 °F32.0 °F66 %30.20 in10.0 miEast (80°)10.4 mphClear
10:15 PM42.8 °F32.0 °F66 %30.21 in10.0 miENE (70°)10.4 mphClear
10:35 PM42.8 °F32.0 °F66 %30.21 in10.0 miENE (70°)10.4 mphClear
10:55 PM42.8 °F32.0 °F66 %30.23 in10.0 miENE (70°)10.4 mphClear
11:15 PM42.8 °F32.0 °F66 %30.24 in10.0 miENE (60°)10.4 mphClear
11:35 PM41.0 °F32.0 °F70 %30.24 in10.0 miNE (50°)8.1 mphClear
11:55 PM37.4 °F30.2 °F75 %30.25 in10.0 miENE (60°)13.8 mphClear
Hourly data recorded from KWWR, located miles away from Buffalo, Oklahoma







STORIES FROM OUR PARTNERS